Location: Goettingen
(51.5300°N, 9.9433°E)
Time: 18:55:47
(UTC+02:00)

N. Korean satellite - Visible Passes

Search period start: 26 September 2021 00:00
Search period end: 06 October 2021 00:00
Orbit: 449 x 498 km, 97.3° (Epoch: 25 September)

Date Brightness Start Highest point End Pass type
(mag) Time Alt. Az. Time Alt. Az. Time Alt. Az.
26 Sep 7.2 06:36:30 10° NNE 06:40:02 61° E 06:43:35 10° S visible
27 Sep 8.8 06:08:58 10° NNE 06:12:08 29° E 06:15:19 10° SSE visible
28 Sep 9.8 05:41:53 10° NE 05:44:07 16° E 05:46:21 10° SE visible
30 Sep 8.3 06:18:33 10° NNE 06:21:55 38° E 06:25:18 10° SSE visible
01 Oct 9.5 05:51:12 10° NE 05:53:54 20° E 05:56:36 10° SE visible
02 Oct 10.3 05:25:11 10° ENE 05:25:45 10° E 05:26:20 10° E visible
03 Oct 7.7 06:28:04 10° NNE 06:31:35 49° E 06:35:07 10° S visible
04 Oct 9.1 06:00:32 10° NE 06:03:34 25° E 06:06:37 10° SSE visible
05 Oct 9.9 05:33:39 10° ENE 05:35:26 13° E 05:37:14 10° ESE visible
